This demonstration page uses our WeatherBlox Daily Observations layout. Learn more.

Left ArrowRight Arrow

Hourly Observations for July 23, 2016

Temp ( °F °C ) Dew Point ( °F °C ) Humidity (%) Winds ( mph kmh ) Pressure ( in mb ) Visibility ( mi km ) Precip ( " mm )
12:53 am 00:53 Clear 73 22.8 70 21.1 90 90 N N/A 30.03 1017 9 14 N/A
1:53 am 01:53 Clear with Mist and Fog 72 22.2 69 20.6 91 91 N N/A 30.01 1016 6 10 N/A
2:53 am 02:53 Clear 71 21.7 69 20.6 94 94 N N/A 30.01 1016 8 13 N/A
3:53 am 03:53 Clear with Mist and Fog 70 21.1 68 20 93 93 N N/A 30.01 1016 5 8 N/A
4:53 am 04:53 Mostly Clear with Mist and Fog 70 21.1 68 20 93 93 N N/A 30.00 1016 5 8 N/A
6:02 am 06:02 Clear with Mist and Fog 69 20.6 67 19.4 93 93 N N/A 30.03 1017 3 4 N/A
6:09 am 06:09 Clear with Mist and Fog 69 20.6 67 19.4 93 93 N N/A 30.03 1017 4 6 N/A
6:30 am 06:30 Clear with Mist and Fog 69 20.6 67 19.4 93 93 N N/A 30.03 1017 2 3 N/A
6:51 am 06:51 Sunny with Mist and Fog 68 20 66 19 94 94 N N/A 30.03 1017 3 5 N/A
6:53 am 06:53 Sunny with Mist and Fog 68 20 66 18.9 93 93 N N/A 30.01 1016 1 2 N/A
7:02 am 07:02 Partly Cloudy with Mist and Fog 69 20.6 67 19.4 93 93 N N/A 30.03 1017 2 3 N/A
7:04 am 07:04 Partly Cloudy with Mist and Fog 69 20.6 67 19.4 93 93 N N/A 30.03 1017 3 5 N/A
7:27 am 07:27 Mostly Cloudy with Mist and Fog 72 22.2 69 20.6 91 91 SSE 3 6 30.03 1017 5 8 N/A
7:38 am 07:38 Partly Cloudy with Mist and Fog 73 22.8 70 21.1 90 90 N N/A 30.03 1017 6 10 N/A
7:53 am 07:53 Sunny with Mist and Fog 75 23.9 71 21.7 88 88 N N/A 30.01 1016 6 10 N/A
8:53 am 08:53 Hazy 79 26.1 73 22.8 82 82 N N/A 30.02 1017 6 10 N/A
9:53 am 09:53 Sunny 83 28.3 74 23.3 74 74 N N/A 30.02 1017 8 13 N/A
10:53 am 10:53 Partly Cloudy 86 30 73 22.8 65 65 VRB 3 6 30.02 1017 10 16 N/A
11:53 am 11:53 Mostly Cloudy 88 31.1 72 22.2 59 59 N N/A 30.01 1016 10 16 N/A
12:53 pm 12:53 Mostly Cloudy 90 32.2 73 22.8 58 58 W 8 13 30.00 1016 10 16 N/A
1:53 pm 13:53 Mostly Sunny 91 32.8 72 22.2 54 54 VRB 6 9 30.00 1016 10 16 N/A
2:53 pm 14:53 Mostly Sunny 92 33.3 70 21.1 49 49 SW 9 15 29.99 1016 10 16 N/A
3:53 pm 15:53 Sunny 93 33.9 70 21.1 47 47 NNW 3 6 29.98 1015 10 16 N/A
4:53 pm 16:53 Sunny 93 33.9 71 21.7 49 49 VRB 7 11 29.96 1015 10 16 N/A
5:53 pm 17:53 Sunny 93 33.9 71 21.7 49 49 WSW 7 11 29.94 1014 10 16 N/A
6:53 pm 18:53 Sunny 91 32.8 71 21.7 52 52 N N/A 29.93 1014 10 16 N/A
7:53 pm 19:53 Sunny 90 32.2 71 21.7 54 54 W 5 7 29.93 1014 10 16 N/A
8:53 pm 20:53 Sunny 83 28.3 71 21.7 67 67 NW 6 9 29.95 1014 10 16 N/A
9:53 pm 21:53 Clear 78 25.6 72 22.2 82 82 N N/A 29.97 1015 10 16 N/A
10:53 pm 22:53 Clear 77 25 72 22.2 85 85 N N/A 29.99 1016 10 16 N/A
11:53 pm 23:53 Clear 75 23.9 72 22.2 90 90 N N/A 29.99 1016 10 16 N/A

Powered by AerisWeather